GEFSSE_500_meanwind_246.txt.gz
Wind_Speed
2 3 3 4 4 4 4 3 3 1 1 2 2 2 2 2 2 2 2 3 3 3 3 3 3 4 4 4 3 3 3 3 4 4 4 4 4 4 3 3 2 2 2
2 2 3 3 4 4 4 3 2 2 2 2 2 2 2 2 2 3 3 3 3 3 4 4 5 5 4 4 4 4 4 4 5 5 5 4 4 4 4 3 2 2 2
3 3 3 3 4 4 3 3 3 3 3 3 3 3 3 3 3 3 4 4 4 4 4 5 6 5 5 4 4 4 4 4 4 5 6 6 5 5 4 4 4 4 3
3 3 3 3 4 4 4 4 4 4 5 5 4 4 3 3 3 4 4 4 5 5 5 5 5 4 4 4 4 4 4 4 3 4 5 6 5 5 5 4 4 4 4
4 3 3 4 4 4 5 5 5 5 5 5 6 5 4 4 4 4 5 5 5 5 5 5 4 4 4 4 4 5 4 4 4 4 5 6 6 5 5 5 5 5 4
4 4 3 4 4 5 5 5 5 5 6 5 5 5 5 5 5 5 5 5 5 5 5 5 5 4 4 5 5 5 5 5 4 5 5 6 6 6 6 6 6 6 5
5 4 4 5 5 5 5 6 5 5 5 5 5 5 6 6 6 6 6 7 7 6 6 6 6 5 5 5 5 5 5 5 5 4 5 5 6 6 6 6 6 6 6
6 5 5 5 5 5 6 6 6 6 6 5 5 6 6 6 6 6 7 7 7 7 6 6 6 6 6 6 5 6 6 6 5 4 4 5 6 6 6 6 6 6 6
6 5 6 6 6 6 6 6 6 6 6 5 5 6 6 6 7 7 6 6 6 7 6 6 6 6 6 6 6 5 5 5 6 5 5 5 6 6 7 7 7 7 7
6 6 6 7 7 7 7 7 6 6 5 5 5 6 6 6 6 7 6 6 6 6 6 6 6 6 6 6 6 6 6 6 6 5 6 6 6 7 7 7 7 7 8
6 6 6 6 7 7 6 7 6 6 6 6 6 6 6 6 7 7 6 6 6 6 6 6 6 6 6 7 7 6 6 6 6 6 6 6 6 7 7 8 8 8 8
7 7 7 7 7 7 6 6 7 7 7 7 7 7 7 7 7 7 7 7 7 7 6 6 7 7 7 7 7 6 6 6 7 7 7 6 6 6 7 7 7 6 7
7 7 7 6 6 7 7 7 7 7 7 7 7 7 7 7 7 7 7 7 7 7 7 7 8 8 8 7 7 8 7 8 7 7 7 7 7 7 7 7 6 7 6
8 8 8 7 7 7 6 7 7 7 6 7 7 7 7 7 7 7 7 8 8 8 7 7 8 8 8 8 8 8 8 8 7 7 7 7 6 6 7 7 7 7 6
8 8 7 7 7 7 7 7 7 7 6 6 6 7 6 7 7 7 7 8 8 8 8 8 8 8 8 8 8 8 8 8 8 7 6 7 7 7 7 7 7 7 7
7 7 7 7 7 7 7 7 7 6 6 6 6 7 7 7 7 7 7 8 8 9 9 9 9 9 9 9 8 8 8 8 7 7 7 7 7 7 7 7 7 7 6
7 6 7 7 7 7 6 6 6 6 7 7 6 6 7 7 7 7 8 8 9 9 8 9 9 9 9 9 8 8 8 8 7 7 7 6 7 7 7 7 7 7 7
7 6 7 6 7 6 6 6 6 7 7 7 7 7 7 7 7 8 8 9 8 8 9 9 9 9 8 8 8 8 7 7 7 7 7 7 7 7 7 7 7 7 8
7 7 7 7 7 7 6 6 6 7 7 7 7 7 7 7 7 8 8 8 8 8 8 8 8 8 8 8 8 8 8 8 8 8 8 8 8 8 8 8 8 8 9
7 7 7 7 7 7 7 6 6 7 7 7 7 7 7 7 8 8 8 8 8 7 7 7 7 7 8 8 8 8 8 8 8 8 8 8 8 8 8 8 9 9 9
7 8 8 8 7 7 8 8 8 8 8 7 7 7 7 7 8 8 8 7 7 7 7 7 7 7 8 8 8 8 8 8 8 8 8 9 9 9 9 9 9 9 10
7 8 8 8 8 8 8 9 9 9 8 7 7 7 7 8 7 7 7 7 7 7 8 8 7 7 8 8 8 7 7 7 8 8 9 9 9 9 9 9 9 10 10
8 8 9 9 9 9 9 10 10 9 9 8 8 8 8 8 7 7 8 8 7 7 7 7 7 7 7 7 7 7 8 8 8 8 9 9 9 9 9 10 9 10 10
9 9 9 9 9 10 10 9 9 9 8 9 9 8 8 8 8 8 8 8 8 8 7 7 7 7 8 8 8 8 8 8 9 9 9 9 9 9 9 10 10 9 9
10 10 10 10 10 10 9 10 10 10 10 9 9 9 9 9 9 9 9 8 8 9 9 8 8 8 8 9 9 9 9 9 9 9 10 10 9 9 10 9 10 10 10
10 11 10 10 11 10 10 10 11 11 10 10 10 10 10 10 10 10 10 9 9 9 9 9 9 9 10 10 10 10 10 10 10 10 9 9 10 10 10 10 10 10 10

GEFSSE_500_meanwind_252.txt.gz
Wind_Speed
3 4 4 5 5 5 5 4 4 5 4 4 3 3 3 3 4 3 3 3 4 5 5 4 4 4 4 4 4 4 4 3 3 3 4 4 3 4 4 4 3 3 3
3 3 3 4 4 4 4 4 4 4 4 4 4 4 4 4 4 4 4 5 5 6 6 6 5 4 4 4 4 4 4 4 4 4 5 5 4 5 5 5 5 4 4
2 3 3 3 4 4 4 4 5 4 4 4 4 4 5 5 5 5 5 6 6 6 6 6 5 5 5 5 5 5 5 5 5 5 5 5 5 5 6 6 5 5 4
2 3 3 3 4 4 4 4 5 5 5 5 5 5 5 5 5 5 6 6 6 5 6 5 4 4 5 5 5 5 5 5 6 5 5 5 6 6 6 6 5 5 5
3 3 3 4 4 4 4 4 5 5 5 5 5 5 5 5 5 5 6 6 6 6 5 4 3 4 5 5 5 5 5 6 5 5 5 5 6 7 6 6 5 5 5
4 4 4 4 4 5 5 5 5 5 6 6 6 6 6 6 5 6 6 6 6 6 5 5 4 5 5 5 6 5 5 6 5 5 5 6 6 7 7 7 6 6 6
5 4 4 5 5 5 5 5 6 6 6 6 6 6 6 6 6 6 6 7 6 6 6 5 5 5 5 6 6 5 5 5 5 6 6 6 7 7 7 7 7 7 7
5 5 5 5 5 6 6 6 6 7 7 7 7 6 6 6 6 6 6 7 7 6 6 6 5 5 6 5 6 6 5 5 5 6 6 6 7 7 7 7 7 7 8
6 6 5 5 5 6 6 6 6 7 7 7 7 7 6 6 7 7 7 7 6 6 6 6 6 6 6 5 6 5 5 5 6 6 7 7 6 7 8 8 8 8 9
6 6 6 6 6 6 6 6 6 7 7 7 7 6 6 6 7 7 7 6 6 6 6 6 6 6 5 6 6 7 6 6 6 6 6 7 6 7 8 7 7 8 8
6 6 6 6 6 6 6 7 8 7 7 7 7 6 6 6 7 7 7 6 6 6 6 6 6 7 7 7 7 7 7 7 6 6 6 7 7 7 7 7 8 8 8
6 6 7 7 7 7 7 7 8 8 7 7 7 7 6 6 7 7 7 6 7 7 7 7 8 8 9 8 8 8 8 8 7 6 6 7 7 8 8 8 8 8 9
7 7 7 7 7 8 8 8 8 7 7 7 7 6 6 7 7 7 7 7 7 7 7 7 8 9 9 9 9 9 8 8 8 8 7 7 8 8 8 7 7 8 9
8 8 8 8 8 8 8 8 7 7 7 7 7 7 7 7 7 7 7 7 7 7 7 7 8 9 9 9 9 9 8 8 9 8 8 7 7 7 7 7 7 7 8
8 8 8 8 9 8 7 8 7 7 7 7 6 6 6 6 6 6 7 7 7 7 7 8 8 8 9 9 9 9 9 9 9 8 8 7 7 7 7 7 8 8 8
9 9 8 8 8 7 7 8 7 7 6 6 6 7 6 6 6 7 7 7 7 7 8 8 8 8 8 9 9 9 9 9 8 8 7 7 7 7 7 7 8 8 7
8 8 9 9 8 7 8 8 8 7 6 6 6 6 6 7 7 7 7 8 8 8 8 8 8 9 9 8 9 9 9 9 8 7 7 7 7 7 8 8 8 8 8
8 8 9 8 8 8 8 8 8 7 6 6 6 6 6 7 8 8 7 8 8 8 7 7 8 8 8 8 8 9 9 8 8 7 7 7 7 8 8 8 9 9 8
8 7 8 7 7 7 7 7 7 6 6 7 7 7 7 7 8 7 8 8 8 7 7 7 8 8 8 8 8 8 9 8 8 8 8 8 8 8 8 9 9 9 9
8 7 7 8 8 8 7 7 7 7 7 7 7 7 7 7 8 8 8 8 8 7 7 7 8 8 9 9 8 8 9 9 9 9 8 8 8 8 8 9 9 10 10
8 8 8 8 8 8 8 8 7 8 8 8 8 8 8 8 8 8 8 8 8 8 8 8 8 9 9 9 9 9 9 9 9 9 9 8 9 9 9 10 10 10 10
8 8 8 8 8 9 8 8 8 8 9 8 8 9 9 8 8 8 8 8 8 8 8 8 9 10 10 10 9 9 9 10 9 9 9 9 10 10 10 10 10 11 11
9 8 8 8 8 9 9 9 9 9 9 8 8 9 9 9 9 9 8 8 8 8 9 9 9 10 10 10 10 9 9 10 10 10 10 10 10 11 11 11 11 11 11
10 9 9 9 10 10 10 10 10 10 10 10 10 9 9 9 9 9 9 9 9 9 9 9 10 10 10 10 10 10 10 10 11 11 11 11 12 11 11 11 11 11 11
10 10 10 10 10 11 11 10 11 10 11 11 11 10 9 10 9 9 10 10 10 10 10 11 11 11 11 11 11 11 11 11 11 11 12 12 13 12 12 12 11 11 11
11 11 11 11 11 12 12 11 12 12 11 11 11 11 11 11 11 11 11 11 11 11 11 11 11 11 12 12 12 12 12 12 12 12 13 13 13 13 13 13 12 11 11

GEFSSE_500_meanwind_258.txt.gz
Wind_Speed
2 2 2 2 2 2 2 2 1 1 1 2 1 1 1 0 1 2 2 2 2 2 2 3 3 2 2 2 2 2 2 3 3 4 4 4 4 4 4 4 4 4 4
0 1 2 2 2 1 1 1 1 1 2 2 2 2 2 2 2 2 3 3 3 3 4 5 5 3 2 2 2 3 3 4 5 5 5 6 6 6 5 6 6 5 5
1 1 1 1 1 1 1 1 2 2 3 2 2 2 2 3 3 3 3 3 3 3 4 5 4 4 3 3 3 3 3 4 5 5 6 6 7 7 7 7 7 6 6
2 2 2 2 2 2 2 2 3 3 3 3 3 3 3 3 3 3 3 3 4 4 4 4 3 4 4 4 4 4 4 4 5 5 6 6 7 7 7 7 7 7 7
3 3 3 2 3 3 3 3 3 3 4 4 4 4 4 4 4 3 3 3 4 4 4 3 3 4 4 5 5 5 5 5 5 5 6 6 7 7 7 8 8 8 7
3 3 4 4 4 4 4 4 4 5 5 5 5 5 5 5 4 4 4 4 4 5 5 4 4 4 5 5 5 5 5 5 5 6 6 7 8 8 8 8 8 8 8
4 4 4 5 5 5 5 5 5 6 6 6 5 5 5 5 5 5 5 5 4 5 5 5 5 5 5 5 5 5 5 6 6 6 6 7 8 8 9 9 9 10 9
5 4 5 5 6 5 5 6 6 7 6 6 6 6 6 6 6 6 6 5 5 5 5 6 6 6 5 5 5 5 5 6 5 6 6 7 7 8 9 10 10 10 9
6 6 6 6 6 6 6 7 7 7 6 6 6 6 6 5 6 6 7 6 6 6 6 6 6 6 6 6 6 6 6 6 6 5 6 7 7 8 8 9 10 10 10
6 7 7 7 7 7 7 7 7 6 6 5 5 6 6 6 6 6 7 7 6 6 6 5 6 6 6 6 6 6 6 6 6 7 7 7 7 7 8 8 9 10 10
7 7 7 7 8 8 7 7 6 6 6 5 6 6 6 6 6 6 6 6 6 6 6 5 5 5 6 6 6 6 6 6 6 7 7 7 7 7 8 8 8 9 10
7 8 8 8 9 8 8 7 7 6 6 7 6 7 6 6 6 6 6 6 5 5 6 6 6 6 7 7 8 7 7 7 6 6 6 6 7 7 8 8 8 9 9
8 8 9 8 8 8 8 8 8 8 8 8 8 8 7 7 7 6 6 5 5 6 6 6 6 6 7 7 7 6 7 7 7 7 7 7 7 8 8 8 8 9 9
9 9 9 9 9 9 9 9 9 9 8 7 7 7 6 6 7 6 6 6 6 6 7 7 7 7 7 7 7 7 7 7 7 7 7 7 8 8 8 8 8 8 8
9 9 9 9 9 9 9 9 9 9 8 7 6 6 6 6 6 6 6 6 6 6 7 7 7 7 7 7 8 8 8 8 7 7 7 7 8 7 8 8 8 8 8
9 10 9 9 9 9 8 8 9 8 8 7 7 6 6 6 6 6 6 6 6 6 7 7 8 8 8 8 8 8 8 8 8 8 8 8 8 8 8 8 8 8 8
10 10 10 10 9 8 8 9 8 8 7 7 7 6 6 6 6 6 6 6 6 6 7 8 8 8 8 8 8 8 8 8 8 8 8 8 8 8 8 8 7 8 8
10 10 10 10 9 8 8 8 8 8 8 7 7 6 6 6 6 6 6 6 7 7 7 8 7 8 8 8 8 9 8 8 9 9 9 9 9 9 8 8 8 8 8
10 10 10 9 9 8 8 8 8 9 9 8 8 8 7 7 6 6 6 7 7 7 7 8 7 7 8 8 9 9 9 9 9 9 9 9 9 9 9 10 10 9 9
10 10 9 8 8 8 8 8 8 8 9 9 9 9 8 8 7 7 7 7 7 7 7 8 8 8 8 8 8 8 9 9 10 10 10 10 10 10 10 10 10 10 11
10 10 9 9 8 8 8 8 8 8 9 10 10 9 9 9 9 9 8 8 8 8 8 8 8 8 8 8 8 8 8 9 9 10 10 11 11 11 11 11 11 11 11
10 10 10 9 9 9 9 9 9 9 9 9 9 9 9 10 9 9 9 9 9 9 9 8 8 9 9 9 9 9 9 9 10 10 11 11 12 12 12 12 12 12 12
10 10 10 9 9 10 10 10 10 10 11 11 10 9 10 10 10 10 10 10 10 10 9 9 9 9 9 9 10 10 10 10 10 11 11 11 11 12 13 13 12 13 13
11 10 10 10 10 10 11 11 10 11 11 11 11 10 10 10 11 11 11 11 10 10 10 9 9 9 9 9 10 10 10 10 10 11 11 12 12 12 12 12 13 13 13
11 11 11 11 11 11 11 11 11 12 12 12 12 12 11 11 11 11 10 10 10 10 9 9 9 10 10 10 10 10 10 10 11 11 12 12 12 12 12 12 13 13 13
12 12 11 11 11 11 12 12 12 13 13 13 13 13 12 12 12 11 11 11 11 11 10 10 10 10 10 10 11 11 11 11 12 12 13 13 13 14 14 14 13 13 14

GEFSSE_500_meanwind_264.txt.gz
Wind_Speed
3 3 3 3 3 3 3 2 2 2 2 3 3 2 2 3 3 4 4 4 4 4 4 4 4 4 4 4 4 4 4 3 4 3 3 4 4 4 4 4 4 4 4
3 3 4 4 4 4 3 3 4 4 4 4 4 4 4 4 4 5 5 5 6 6 6 6 5 5 4 5 4 4 4 4 5 5 4 5 5 5 5 5 5 6 5
4 4 4 5 5 5 5 5 5 5 5 5 4 5 5 5 5 6 5 6 6 6 7 7 6 5 4 4 4 5 5 5 5 5 5 6 6 7 7 6 6 7 6
5 5 5 5 5 6 6 6 6 6 6 6 5 5 5 5 5 5 5 5 5 5 5 6 6 5 5 4 5 5 6 6 6 6 6 7 7 7 7 7 7 7 7
6 6 6 6 6 6 7 7 7 7 6 6 6 6 6 6 6 6 6 6 5 5 4 5 5 5 5 5 5 6 6 6 6 7 7 8 8 8 8 8 8 8 7
7 7 7 7 7 7 8 8 7 8 8 7 7 7 7 7 6 6 7 6 6 6 5 5 6 6 6 5 5 6 6 7 7 8 8 8 8 9 9 9 8 8 8
8 8 8 8 8 8 9 10 9 9 8 7 8 7 7 7 7 7 7 7 6 6 6 6 7 7 7 7 6 6 6 6 7 7 8 8 8 9 9 9 9 9 9
9 9 9 9 9 9 9 9 9 9 8 8 8 7 7 7 7 6 7 7 7 7 7 7 7 7 7 7 7 6 7 8 7 7 7 7 7 8 8 9 9 9 9
9 9 10 10 9 9 9 9 8 8 7 8 7 8 7 7 7 7 8 8 8 8 7 7 7 7 7 7 7 7 7 8 8 8 7 8 8 8 9 9 9 8 8
10 10 10 10 10 9 9 9 8 8 8 8 8 8 8 8 7 7 7 7 8 7 7 7 7 6 6 7 7 8 8 8 8 7 7 7 8 8 9 9 9 8 8
10 10 11 11 10 9 10 10 9 9 9 8 8 7 7 7 7 7 7 7 7 7 7 7 7 7 7 7 7 7 7 7 7 6 6 7 8 8 8 8 8 8 7
11 10 10 10 10 10 10 10 10 9 9 9 8 7 7 7 7 7 7 7 7 7 6 6 7 7 7 7 7 7 7 7 7 7 7 7 8 7 7 8 8 8 8
11 10 10 10 11 10 10 10 10 10 10 9 9 8 8 8 8 7 7 7 7 7 6 7 7 7 7 7 8 7 7 7 7 7 7 8 8 8 8 7 8 8 8
11 11 11 11 10 10 10 10 11 11 10 10 10 10 10 9 8 8 8 8 8 7 7 7 7 7 7 7 8 7 8 8 8 8 8 8 8 8 8 8 8 8 9
11 11 11 10 10 10 10 11 11 11 10 10 10 10 10 9 8 8 8 7 7 7 7 7 7 7 7 8 7 8 8 8 8 8 8 8 8 8 8 8 9 9 10
10 11 11 11 11 11 10 10 10 10 10 10 10 9 9 9 8 7 7 7 7 7 7 7 7 7 7 8 8 8 8 8 8 8 8 8 8 8 8 9 9 9 9
11 11 11 10 10 10 10 11 11 10 10 10 10 10 9 8 8 7 8 8 7 7 7 8 8 8 8 8 9 9 9 9 9 8 8 9 8 8 9 9 9 10 10
11 11 11 11 11 11 11 11 10 10 10 10 10 10 10 9 8 8 8 8 7 8 8 8 8 8 8 9 10 10 10 9 9 9 9 9 9 9 9 9 10 10 10
12 12 12 12 12 11 11 11 11 10 10 11 10 10 10 9 9 8 8 8 8 8 8 8 8 8 9 9 10 10 10 9 9 9 9 10 10 10 10 9 10 10 10
13 13 13 13 12 12 12 11 11 10 9 10 10 10 10 9 9 9 9 9 9 8 8 9 9 9 9 9 9 10 9 9 9 10 10 10 10 11 10 10 11 10 10
13 13 13 13 12 12 12 11 10 10 10 10 10 11 11 10 9 10 10 10 10 10 9 10 10 9 9 9 10 10 10 10 10 10 10 11 11 12 12 12 11 11 11
12 12 12 12 12 12 12 11 11 10 10 11 11 10 10 10 10 10 10 10 10 10 11 10 10 10 10 10 10 11 11 11 11 11 11 12 12 12 12 12 12 12 12
11 11 11 11 12 11 11 11 11 11 11 11 11 11 10 10 10 11 11 10 10 10 11 11 11 11 11 11 11 11 11 12 12 12 12 12 12 12 12 12 13 13 12
11 11 11 11 11 11 11 11 11 11 11 11 11 11 11 11 11 11 11 10 10 11 11 11 11 11 11 11 11 11 11 12 12 12 12 12 12 12 13 13 13 13 13
11 11 11 11 11 11 11 11 11 11 11 11 11 12 11 11 11 11 12 11 11 11 12 12 12 12 12 11 12 12 12 12 12 12 12 12 12 12 13 13 13 13 13
11 12 12 12 12 12 12 12 12 12 12 12 12 12 12 12 12 12 12 12 12 13 13 13 12 12 12 12 12 12 12 12 12 13 13 13 13 13 13 13 13 13 13